Billard Verband Uckermark e.V.

Gerswalder SV

Auf Facebook teilen
1980
1194
2019/2020
14
28965
767,28
1194 / 533
Name Spiele Gesamtpuntke Durchschnitt
Marco Rieger 5 1259 251,80
Matthias Schauseil 15 3654 243,60
Wolfgang Klaffki 15 3619 241,27
Dirk Collin 17 3454 203,18
Mario Krause 17 3441 202,41
Mario Zingelmann 16 3159 197,44
Martin Henselin 8 1408 176,00
Karl-Heinz Trettin 13 2153 165,62
Ralf Henselin 15 2368 157,87
Wolfgang Höfener 15 2347 156,47
Jörg Ladewich 15 2103 140,20
Burkhard Bechly000,00
Udo Denkmann000,00
Ernst Parpat000,00
Spieltag Datum Heim Gast Points
1 05.09.2019 Gerswalder SV I Lychener SV 90 I 1028:873
1 06.09.2019 SV R/W Günterberg I Gerswalder SV II 893:832
2 13.09.2019 SV R/W Günterberg II Gerswalder SV I 819:791
2 13.09.2019 Gerswalder SV II SV Boitzenburg I 691:1021
3 20.09.2019 Pool & Kegel Templin Gerswalder SV II 801:870
3 20.09.2019 Gerswalder SV I Lychener SV 90 II 772:743
4 27.09.2019 SG Milmersdorf I Gerswalder SV II 1005:666
4 27.09.2019 Gerswalder SV I SG Milmersdorf II 899:681
5 11.10.2019 Gerswalder SV II SG Greiffenberg I 876:942
6 18.10.2019 Gerswalder SV II Lychener SV 90 I 959:956
6 18.10.2019 SV Boitzenburg II Gerswalder SV I 816:1039
7 21.10.2019 Gerswalder SV I Gerswalder SV II 788:737
8 01.11.2019 Gerswalder SV II SG Milmersdorf II 890:719
8 01.11.2019 SV Boitzenburg I Gerswalder SV I 967:1135
9 14.11.2019 Gerswalder SV I SG Greiffenberg II 900:927
9 15.11.2019 SV R/W Günterberg II Gerswalder SV II 876:717
10 22.11.2019 Gerswalder SV I Pool & Kegel Templin 1062:1050
10 22.11.2019 Lychener SV 90 II Gerswalder SV II 723:876
11 29.11.2019 Gerswalder SV II SG Greiffenberg II 886:700
11 30.11.2019 SG Greiffenberg I Gerswalder SV I 1032:837
12 06.12.2019 Gerswalder SV II SV Boitzenburg II 805:716
12 06.12.2019 SV R/W Günterberg I Gerswalder SV I 933:829
13 13.12.2019 Gerswalder SV I SG Milmersdorf I 1054:798
14 10.01.2020 Gerswalder SV II SV R/W Günterberg I 533:831
14 10.01.2020 Lychener SV 90 I Gerswalder SV I 845:1156
15 17.01.2020 SV Boitzenburg I Gerswalder SV II 1055:849
15 16.01.2020 Gerswalder SV I SV R/W Günterberg II 1083:900
16 24.01.2020 Gerswalder SV II Pool & Kegel Templin 678:921
16 24.01.2020 Lychener SV 90 II Gerswalder SV I 657:1194
17 28.01.2020 SG Milmersdorf II Gerswalder SV I 872:870
17 31.01.2020 Gerswalder SV II SG Milmersdorf I 825:1109
18 14.02.2020 SG Greiffenberg I Gerswalder SV II 813:838